Regional Weather Roundup
Issued by NWS

Home | Current Version | Previous Version | Text Only | Print | Product List | Glossary On
Versions: 1 2 3 4 5 6 7 8 9 10 11 12 13 14 15 16 17 18 19 20 21 22 23 24 25 26 27 28 29 30 31 32 33 34 35 36 37 38 39 40 41 42 43 44 45 46 47 48 49 50
156
ASUS43 KLMK 172310
RWRKY
KENTUCKY REGIONAL WEATHER ROUNDUP
NATIONAL WEATHER SERVICE LOUISVILLE KY
600 PM EST WED JAN 17 2018

NOTE "FAIR" INDICATES FEW OR NO CLOUDS BELOW 12,000 FEET
WITH NO SIGNIFICANT WEATHER AND/OR OBSTRUCTIONS TO VISIBILITY.

KYZ001>023-026-027-061>063-070>075-180000-
WESTERN AND SOUTH CENTRAL KENTUCKY

CITY           SKY/WX    TMP DP  RH WIND       PRES   REMARKS
PADUCAH        FAIR      17   5  59 SW5       30.63F WCI  10
HENDERSON      FAIR      14   6  70 CALM      30.62
OWENSBORO      FAIR      14   7  73 W5        30.62F WCI   6
HOPKINSVILLE   FAIR      15   6  68 N3        30.61F
BOWLING GREEN  FAIR      17   8  67 W6        30.61F WCI   9
GLASGOW        FAIR      14   8  77 W5        30.58S WCI   6
$$

KYZ024-025-028>034-038-045-046-053-180000-
NORTH CENTRAL KENTUCKY

CITY           SKY/WX    TMP DP  RH WIND       PRES   REMARKS
LOUISVILLE/SDF FAIR      19  10  68 SW7       30.57F WCI  10
LOUISVILLE/LOU FAIR      18  10  71 SW8       30.57F WCI   8
FORT KNOX      FAIR      14   7  73 SW6       30.54F WCI   5
$$

KYZ035>037-039>044-047>052-055>060-089>105-180000-
NORTHEAST KENTUCKY

CITY           SKY/WX    TMP DP  RH WIND       PRES   REMARKS
LEXINGTON      FAIR      12   5  73 SW6       30.52F WCI   3
COVINGTON      FAIR      17  10  74 SW6       30.49F WCI   9
FRANKFORT      FAIR      14   5  67 SW3       30.53F
$$

KYZ054-064>069-076>088-106>120-180000-
SOUTHEAST KENTUCKY

CITY           SKY/WX    TMP DP  RH WIND       PRES   REMARKS
JACKSON        CLOUDY    12   5  73 CALM      30.46S
LONDON         MOCLDY    13   6  74 NW6       30.49S WCI   4
SOMERSET       MOCLDY    16   9  73 N8        30.54F WCI   5
MIDDLESBORO    CLOUDY    13   6  72 N7        30.50F WCI   3
MONTICELLO     FLURRIES  10   5  80 W8        30.56S WCI  -2
$$





USA.gov is the U.S. government's official web portal to all federal, state and local government web resources and services.